• In Uzbekistan
  • List of Countries
  • For 7 days
  • Water Temperature
  • Weather Map
  • Weather Widgets
  • user-avatar
    Login

    Hourly Weather Shkoder

    Today, 15 November, Friday

    Time Temperature Precipitation Wind Pressure Humidity
    00:00 +12°C° 0 mm 1 mps 737 mmHg 84%
    01:00 +12°C° 0 mm 1 mps 737 mmHg 83%
    02:00 +12°C° 0 mm 1 mps 737 mmHg 82%
    03:00 +12°C° 0 mm 1 mps 737 mmHg 81%
    04:00 +12°C° 0 mm 1 mps 737 mmHg 81%
    05:00 +12°C° 0 mm 1 mps 737 mmHg 79%
    06:00 +12°C° 0 mm 1 mps 738 mmHg 78%
    07:00 +12°C° 0 mm 1 mps 738 mmHg 77%
    08:00 +14°C° 0 mm 1 mps 738 mmHg 72%
    09:00 +15°C° 0 mm 1 mps 738 mmHg 68%
    10:00 +18°C° 0 mm 1 mps 738 mmHg 63%
    11:00 +18°C° 0 mm 1 mps 738 mmHg 61%
    12:00 +19°C° 0 mm 1 mps 738 mmHg 58%
    13:00 +19°C° 0 mm 1 mps 738 mmHg 56%
    14:00 +19°C° 0 mm 1 mps 738 mmHg 60%
    15:00 +18°C° 0 mm 1 mps 738 mmHg 64%
    16:00 +16°C° 0 mm 1 mps 738 mmHg 68%
    17:00 +16°C° 0 mm 1 mps 739 mmHg 70%
    18:00 +15°C° 0 mm 1 mps 739 mmHg 71%
    19:00 +15°C° 0 mm 1 mps 740 mmHg 72%
    20:00 +14°C° 0.1 mm 1 mps 740 mmHg 74%
    21:00 +14°C° 0.1 mm 1 mps 740 mmHg 76%
    22:00 +14°C° 0.1 mm 1 mps 741 mmHg 78%
    23:00 +14°C° 0.1 mm 1 mps 741 mmHg 79%

    Tomorrow, 16 November, Saturday

    Time Temperature Precipitation Wind Pressure Humidity
    00:00 +14°C° 0.1 mm 1 mps 741 mmHg 79%
    01:00 +14°C° 0.1 mm 1 mps 741 mmHg 80%
    02:00 +14°C° 0 mm 1 mps 741 mmHg 80%
    03:00 +14°C° 0 mm 1 mps 741 mmHg 80%
    04:00 +14°C° 0 mm 1 mps 741 mmHg 79%
    05:00 +14°C° 0 mm 1 mps 741 mmHg 79%
    06:00 +14°C° 0 mm 1 mps 741 mmHg 78%
    07:00 +14°C° 0 mm 1 mps 742 mmHg 78%
    08:00 +15°C° 0 mm 1 mps 742 mmHg 74%
    09:00 +16°C° 0 mm 1 mps 742 mmHg 71%
    10:00 +19°C° 0 mm 1 mps 742 mmHg 67%
    11:00 +19°C° 0 mm 1 mps 741 mmHg 65%
    12:00 +20°C° 0 mm 1 mps 741 mmHg 63%
    13:00 +20°C° 0 mm 1 mps 741 mmHg 61%
    14:00 +19°C° 0 mm 1 mps 741 mmHg 66%
    15:00 +18°C° 0 mm 1 mps 740 mmHg 71%
    16:00 +16°C° 0 mm 1 mps 740 mmHg 76%
    17:00 +16°C° 0 mm 1 mps 740 mmHg 76%
    18:00 +15°C° 0 mm 1 mps 740 mmHg 77%
    19:00 +15°C° 0 mm 1 mps 740 mmHg 77%
    20:00 +14°C° 0 mm 1 mps 740 mmHg 77%
    21:00 +14°C° 0 mm 1 mps 740 mmHg 76%
    22:00 +14°C° 0 mm 1 mps 740 mmHg 75%
    23:00 +13°C° 0 mm 1 mps 740 mmHg 75%

    Day after tomorrow, 17 November, Sunday

    Time Temperature Precipitation Wind Pressure Humidity
    00:00 +13°C° 0 mm 2 mps 740 mmHg 74%
    01:00 +13°C° 0 mm 2 mps 740 mmHg 74%
    02:00 +13°C° 0 mm 2 mps 739 mmHg 73%
    03:00 +13°C° 0 mm 2 mps 739 mmHg 73%
    04:00 +12°C° 0 mm 2 mps 739 mmHg 72%
    05:00 +12°C° 0 mm 2 mps 739 mmHg 73%
    06:00 +12°C° 0 mm 2 mps 739 mmHg 73%
    07:00 +12°C° 0 mm 2 mps 739 mmHg 74%
    08:00 +14°C° 0 mm 2 mps 739 mmHg 71%
    09:00 +15°C° 0 mm 2 mps 739 mmHg 69%
    10:00 +16°C° 0 mm 2 mps 739 mmHg 66%
    11:00 +18°C° 0 mm 1 mps 738 mmHg 64%
    12:00 +18°C° 0 mm 1 mps 738 mmHg 62%
    13:00 +19°C° 0 mm 1 mps 738 mmHg 60%
    14:00 +18°C° 0 mm 1 mps 737 mmHg 64%
    15:00 +16°C° 0 mm 1 mps 737 mmHg 68%
    16:00 +15°C° 0 mm 1 mps 737 mmHg 72%
    17:00 +15°C° 0 mm 1 mps 737 mmHg 71%
    18:00 +15°C° 0 mm 1 mps 737 mmHg 69%
    19:00 +14°C° 0 mm 2 mps 737 mmHg 68%
    20:00 +14°C° 0 mm 2 mps 736 mmHg 68%
    21:00 +14°C° 0 mm 2 mps 736 mmHg 67%
    22:00 +14°C° 0 mm 2 mps 736 mmHg 67%
    23:00 +12°C° 1 mm 3 mps 736 mmHg 75%

    18 November, Monday

    Time Temperature Precipitation Wind Pressure Humidity
    00:00 +12°C° 1 mm 4 mps 736 mmHg 83%
    01:00 +12°C° 1 mm 5 mps 737 mmHg 91%
    02:00 +11°C° 1.7 mm 4 mps 737 mmHg 90%
    03:00 +11°C° 1.7 mm 3 mps 737 mmHg 89%
    04:00 +10°C° 1.7 mm 2 mps 738 mmHg 88%
    05:00 +11°C° 0.1 mm 1 mps 738 mmHg 87%
    06:00 +12°C° 0.1 mm 1 mps 738 mmHg 86%
    07:00 +12°C° 0.1 mm 1 mps 738 mmHg 85%
    08:00 +13°C° 0.1 mm 1 mps 739 mmHg 81%
    09:00 +14°C° 0.1 mm 1 mps 739 mmHg 78%
    10:00 +15°C° 0.1 mm 1 mps 739 mmHg 74%
    11:00 +16°C° 0.2 mm 1 mps 739 mmHg 73%
    12:00 +16°C° 0.2 mm 2 mps 739 mmHg 72%
    13:00 +16°C° 0.2 mm 2 mps 739 mmHg 71%
    14:00 +16°C° 0.1 mm 1 mps 739 mmHg 75%
    15:00 +15°C° 0.1 mm 1 mps 739 mmHg 79%
    16:00 +14°C° 0.1 mm 1 mps 739 mmHg 83%
    17:00 +14°C° 0 mm 1 mps 740 mmHg 83%
    18:00 +13°C° 0 mm 1 mps 740 mmHg 83%
    19:00 +13°C° 0 mm 1 mps 740 mmHg 83%
    20:00 +12°C° 0.1 mm 1 mps 740 mmHg 83%
    21:00 +12°C° 0.1 mm 1 mps 740 mmHg 82%
    22:00 +12°C° 0.1 mm 1 mps 740 mmHg 82%
    23:00 +12°C° 0.1 mm 1 mps 740 mmHg 83%

    19 November, Tuesday

    Time Temperature Precipitation Wind Pressure Humidity
    00:00 +12°C° 0.1 mm 1 mps 740 mmHg 84%
    01:00 +12°C° 0.1 mm 1 mps 741 mmHg 86%
    02:00 +11°C° 0.2 mm 1 mps 741 mmHg 86%
    03:00 +11°C° 0.2 mm 1 mps 741 mmHg 87%
    04:00 +11°C° 0.2 mm 1 mps 741 mmHg 88%
    05:00 +11°C° 0.3 mm 1 mps 741 mmHg 88%
    06:00 +12°C° 0.3 mm 1 mps 741 mmHg 88%
    07:00 +12°C° 0.3 mm 1 mps 741 mmHg 88%
    08:00 +13°C° 0.2 mm 1 mps 741 mmHg 83%
    09:00 +14°C° 0.2 mm 1 mps 741 mmHg 79%
    10:00 +15°C° 0.2 mm 1 mps 741 mmHg 74%
    11:00 +15°C° 0.2 mm 1 mps 741 mmHg 75%
    12:00 +15°C° 0.2 mm 1 mps 740 mmHg 75%
    13:00 +15°C° 0.2 mm 1 mps 740 mmHg 76%
    14:00 +14°C° 0.7 mm 1 mps 740 mmHg 81%
    15:00 +13°C° 0.7 mm 1 mps 740 mmHg 87%
    16:00 +13°C° 0.7 mm 1 mps 740 mmHg 92%
    17:00 +13°C° 2.1 mm 1 mps 740 mmHg 92%
    18:00 +12°C° 2.1 mm 1 mps 740 mmHg 93%
    19:00 +12°C° 2.1 mm 1 mps 740 mmHg 93%
    20:00 +12°C° 2.1 mm 1 mps 740 mmHg 93%
    21:00 +12°C° 2.1 mm 1 mps 740 mmHg 94%
    22:00 +12°C° 2.1 mm 1 mps 741 mmHg 94%
    23:00 +12°C° 1.4 mm 1 mps 740 mmHg 94%

    20 November, Wednesday

    Time Temperature Precipitation Wind Pressure Humidity
    00:00 +12°C° 1.4 mm 1 mps 740 mmHg 94%
    01:00 +12°C° 1.4 mm 2 mps 740 mmHg 95%
    02:00 +12°C° 0.5 mm 1 mps 740 mmHg 93%
    03:00 +12°C° 0.5 mm 1 mps 740 mmHg 92%
    04:00 +11°C° 0.5 mm 0 mps 740 mmHg 90%
    05:00 +12°C° 0.1 mm 1 mps 740 mmHg 90%
    06:00 +12°C° 0.1 mm 1 mps 740 mmHg 89%
    07:00 +12°C° 0.1 mm 1 mps 740 mmHg 89%
    08:00 +12°C° 0 mm 1 mps 741 mmHg 85%
    09:00 +13°C° 0 mm 1 mps 741 mmHg 81%
    10:00 +14°C° 0 mm 1 mps 741 mmHg 77%
    11:00 +14°C° 0 mm 1 mps 741 mmHg 75%
    12:00 +15°C° 0 mm 1 mps 741 mmHg 73%
    13:00 +15°C° 0 mm 1 mps 740 mmHg 70%
    14:00 +14°C° 0 mm 1 mps 740 mmHg 74%
    15:00 +14°C° 0 mm 1 mps 741 mmHg 78%
    16:00 +13°C° 0 mm 1 mps 741 mmHg 82%
    17:00 +12°C° 0 mm 0 mps 741 mmHg 83%
    18:00 +11°C° 0 mm 0 mps 741 mmHg 84%
    19:00 +10°C° 0 mm 0 mps 741 mmHg 85%
    20:00 +10°C° 0 mm 0 mps 742 mmHg 85%
    21:00 +10°C° 0 mm 0 mps 742 mmHg 84%
    22:00 +10°C° 0 mm 0 mps 742 mmHg 84%
    23:00 +10°C° 0 mm 0 mps 742 mmHg 84%
    Show more